Regional Weather Roundup
Issued by NWS Lake Charles, LA

Home | Current Version | Previous Version | Text Only | Print | Product List | Glossary On
Versions: 1 2 3 4 5 6 7 8 9 10 11 12 13 14 15 16 17 18 19 20 21 22 23 24 25 26 27 28 29 30 31 32 33 34 35 36 37 38 39 40 41 42 43 44 45 46 47 48 49 50
000
ASUS44 KLCH 311110
RWRLCH
RWRLCH
REGIONAL WEATHER ROUNDUP
NATIONAL WEATHER SERVICE LAKE CHARLES LA
600 AM CDT THU JUL 31 2014

Note: "fair" indicates few or no clouds below 12,000 feet with no
significant weather and/or obstructions to visibility.


ACROSS SOUTHEAST TEXAS

CITY           SKY/WX    TMP DP  RH WIND       PRES   REMARKS
BEAUMONT       MOCLDY    78  72  81 SE5       29.96S
BEAUMONT CITY    N/A     75  72  91 CALM      29.97S
ORANGE         MOSUNNY   73  73 100 CALM      29.99R
JASPER         MOCLDY    70  65  84 CALM      30.03R
$$

ACROSS CENTRAL LOUISIANA

CITY           SKY/WX    TMP DP  RH WIND       PRES   REMARKS
LEESVILLE      MOCLDY    72  63  73 E3        30.02R
FULLERTON        N/A     71  66  84 CALM      30.00R
ALEXANDRIA INT MOCLDY    72  66  81 NE3       30.02R
ESLER FIELD    NOT AVBL
DERIDDER         N/A     71  64  80 CALM      30.03R
OAKDALE        PTSUNNY   68  66  94 CALM      30.01R
OPELOUSAS        N/A     70  68  94 CALM      30.01R
$$

ACROSS SOUTHWEST AND SOUTH CENTRAL LOUISIANA

CITY           SKY/WX    TMP DP  RH WIND       PRES   REMARKS
SULPHUR        MOSUNNY   74  68  83 N3        30.00R
LAKE CHARLES   MOCLDY    73  67  81 E3        29.99R
CHENNAULT INT  CLEAR     73  66  78 CALM      30.00R
CAMERON PHI    PTSUNNY   75  70  83 CALM      29.99R
DEQUINCY         N/A     71  66  85 CALM      30.00R
JENNINGS         N/A     72  68  88 E3        30.00R
LAFAYETTE      PTCLDY    71  67  87 CALM      30.00R
NEW IBERIA     PTCLDY    73  66  78 NE5       30.01R
ABBEVILLE        N/A     68  67  96 CALM      30.00R
PATTERSON      PTCLDY    70  68  94 CALM      30.03R
SALT POINT       N/A     75  70  84 CALM      29.98R
$$

SELECTED SITES ACROSS THE REGION

CITY           SKY/WX    TMP DP  RH WIND       PRES   REMARKS
HOUSTON BUSH   MOCLDY    79  74  84 S3        29.95S
HOUSTON HOBBY  MOCLDY    78  74  87 S3        29.95S
GALVESTON      MOCLDY    82  76  81 S9        29.96S
COLLEGE STAT   MOCLDY    77  73  87 S3        29.97R
CONROE         PTCLDY    73  73 100 CALM      29.98R
HUNTSVILLE     MOCLDY    78  73  84 CALM      29.99R
LUFKIN         CLOUDY    75  66  73 E6        29.99F
SHREVEPORT     LGT RAIN  70  66  87 SE7       30.01S
MONROE         CLOUDY    71  67  87 NE6       30.06S
NATCHEZ MS     CLOUDY    70  63  78 CALM      30.05R
BATON ROUGE    MOCLDY    69  64  84 E6        30.00S
N.O. INTL ARPT PTCLDY    71  65  81 CALM      30.00R
SLIDELL        CLEAR     65  62  90 CALM      30.01R
$$

MARINE REPORTS

STATION/POSITION TIME  TEMP    WIND        PRES    VSBY  WAVE
                       AIR SEA DIR/SP/G                  HT/PER
                 (UTC) (F)     (DEG/KT/KT) (MB)    (MI)  (FT/S)
BUOY 30 S HIGH I NOT AVBL
SEA RIM ST PARK  1100   83     160/  9/ 11 1015.1S
PORT ARTHUR      1100      87  170/  3/  5 1014.8S
SABINE PASS N    1100   81 85  180/  5/  7 1014.9R
TEXAS POINT      1100   82 86  170/  8/ 10 1015.0R
CALCASIEU PASS   1100   83 87  190/  5/  9 1016.2R
LK CHARLES BEACH 1100   75 85              1016.4R
MARSH ISLAND     1000   83     140/  7/  9   N/A
FRESH WATER LOCK 1100   75 86   40/  5/  5 1015.1R
AMERADA PASS     1100   74 83   70/  3/  4 1015.4R
$$



USA.gov is the U.S. government's official web portal to all federal, state and local government web resources and services.